Weather History for Tatalina, AK

Change the Weather History Date:

Saturday, August 17, 2013

  Actual Average Record
Temperature  
Mean Temperature 58 °F -  
Max Temperature 66 °F 58 °F 82 °F (2004)
Min Temperature 52 °F 45 °F 21 °F (2005)
Degree Days  
Heating Degree Days 8    
Growing Degree Days 8 (Base 50)    
Moisture  
Dew Point 51 °F    
Average Humidity 76    
Maximum Humidity 94    
Minimum Humidity 64    
Precipitation  
Precipitation 0.02 in - - ()
Sea Level Pressure  
Sea Level Pressure 29.62 in    
Wind  
Wind Speed 5 mph (NNE)    
Max Wind Speed 9 mph    
Max Gust Speed 17 mph    
Visibility 10 miles    
Events Rain    
Averages and records for this station are not official NWS values.
T = Trace of Precipitation, MM = Missing Value Source: NWS Daily Summary

Daily Weather History Graph

Daily Weather History Graph

Search for Another Location

Airport:

Trip Planner

Search our weather history database for the weather conditions in past years. The results will help you decide how hot, cold, wet, or windy it might be!

Date:

Astronomy

Aug. 17, 2013 Rise Set
Actual Time 6:29 AM AKDT 10:23 PM AKDT
Civil Twilight 5:31 AM AKDT 11:21 PM AKDT
Nautical Twilight 3:54 AM AKDT 12:54 AM AKDT
Astronomical Twilight Sun does not rise Sun does not rise
Moon 8:21 PM AKDT (8/17) 2:02 AM AKDT (8/17)
Length of Visible Light 17h 49m
Length of Day
15h 53m
Waxing Gibbous, 85% of the Moon is Illuminated
Aug 17
Waxing Gibbous
Aug 20
Full
Aug 28
Last Quarter
Sep 5
New
Sep 12
First Quarter

Hourly Weather History & Observations

Time (AKDT) Temp. Dew Point Humidity Pressure Visibility Wind Dir Wind Speed Gust Speed Precip Events Conditions
12:55 AM 60.1 °F 48.4 °F 65% 29.62 in 10.0 mi NE 3.5 mph - N/A   Mostly Cloudy
1:55 AM 56.5 °F 49.1 °F 76% 29.62 in 10.0 mi North 3.5 mph - N/A   Overcast
2:55 AM 55.8 °F 50.9 °F 84% 29.62 in 10.0 mi NNW 5.8 mph - 0.02 in Rain Light Rain Showers
3:55 AM 55.0 °F 51.1 °F 86% 29.62 in 9.0 mi ENE 3.5 mph - N/A Rain Light Rain Showers
4:55 AM 54.1 °F 51.1 °F 89% 29.63 in 10.0 mi ENE 3.5 mph - 0.00 in Rain Light Rain Showers
5:55 AM 54.3 °F 49.5 °F 84% 29.63 in 10.0 mi North 8.1 mph - N/A Rain Light Rain Showers
6:55 AM 55.0 °F 48.4 °F 78% 29.62 in 10.0 mi North 6.9 mph - N/A   Mostly Cloudy
7:55 AM 52.3 °F 50.2 °F 92% 29.63 in 10.0 mi NE 5.8 mph - N/A Rain Light Rain Showers
8:55 AM 52.5 °F 50.7 °F 94% 29.64 in 10.0 mi NE 4.6 mph - N/A   Overcast
9:55 AM 55.2 °F 51.1 °F 86% 29.64 in 10.0 mi Variable 5.8 mph - N/A   Mostly Cloudy
10:55 AM 55.8 °F 50.7 °F 83% 29.64 in 10.0 mi Variable 6.9 mph - N/A   Scattered Clouds
11:55 AM 59.7 °F 49.3 °F 68% 29.63 in 10.0 mi NNE 9.2 mph 13.8 mph N/A   Partly Cloudy
12:55 PM 61.0 °F 50.7 °F 69% 29.64 in 10.0 mi NNE 5.8 mph - N/A   Mostly Cloudy
1:55 PM 61.7 °F 51.4 °F 69% 29.64 in 10.0 mi Variable 4.6 mph - N/A   Mostly Cloudy
2:55 PM 63.3 °F 50.9 °F 64% 29.63 in 10.0 mi Variable 5.8 mph - N/A   Partly Cloudy
3:55 PM 63.0 °F 51.3 °F 66% 29.62 in 10.0 mi Variable 3.5 mph - N/A   Partly Cloudy
4:55 PM 63.3 °F 51.6 °F 66% 29.61 in 10.0 mi North 3.5 mph - N/A   Scattered Clouds
5:55 PM 62.2 °F 51.8 °F 69% 29.61 in 10.0 mi North 8.1 mph 13.8 mph N/A   Scattered Clouds
6:55 PM 62.1 °F 53.2 °F 73% 29.61 in 10.0 mi North 9.2 mph 17.3 mph N/A   Mostly Cloudy
7:55 PM 60.6 °F 50.2 °F 68% 29.61 in 10.0 mi Variable 4.6 mph - N/A   Mostly Cloudy
8:55 PM 60.6 °F 49.3 °F 66% 29.62 in 10.0 mi Variable 3.5 mph - N/A   Clear
9:55 PM 58.8 °F 51.6 °F 77% 29.62 in 10.0 mi SSW 2.3 mph - N/A   Partly Cloudy
10:55 PM 60.6 °F 51.3 °F 71% 29.62 in 10.0 mi Variable 2.3 mph - N/A   Overcast
11:55 PM 59.0 °F 52.5 °F 79% 29.62 in 10.0 mi SW 3.5 mph - N/A   Mostly Cloudy